FENGYUN 1C DEB, 31468

Orbit data source: Space-Track

FENGYUN 1C DEB, 31468 is space debris in SSO originally from a launch on Mon, 10 May 1999 UTC launched from the Taiyaun Space Center, China (TSC). Fengyun 1C debris stems from the Chinese weather satellite Fengyun-1C, which was intentionally destroyed by a Chinese anti-satellite missile in 2007. This event dramatically increased the amount of space debris, with thousands of trackable fragments posing hazards to satellites and human spaceflight. The Fengyun 1C debris cloud has become a focal point in discussions about space sustainability and the need for international regulations to prevent the creation of new debris.

Loading next visibility...
Identifier
31468, 1999-025BVG
Orbit
SSO
Country
Flag of CNCN / PRC
Related business
Manufacturer
Unknown
Mission
Spacecraft
Bus & Motor
Unknown
Mass
Unknown
Launch date (UTC)
1999-05-10 (27 years ago)
Launch vehicle
Unknown
Launch site
Taiyaun Space Center, China (TSC)
Object type
Payload
Rocket body
Debris
Shape & HBR
Unknown shape, 0.1 m
Radar Cross Section
Small (<0.1 m²)

Expand to show TLE details & history
Last TLE update: 5 days ago

TLE from 5 days ago
0 FENGYUN 1C DEB
1 31468U 99025BVG 26250.24219873  .00001269  00000-0  30149-3 0  9996
2 31468  98.1862 242.3555 0165720  66.0611 295.7839 14.47525102712559
Epoch: 2026-09-07T05:48Z
TLE epoch observation values (Epoch: 2026-09-07T05:48:45.970Z)
Latitude
-0.0001°
Longitude
168.8382°
Altitude
687.037 km
Speed
7.539 km/s
True Right ascension
16h 09m 25s
True Declination
0° 00' 00"
Sunlit
Object was in daylight at epoch
Visualization orbit readout
Latitude
Unknown
Longitude
Unknown
Altitude
Unknown
Speed
Unknown
Apparent Right ascension
Unknown
Apparent Declination
Unknown
Sunlit
N/A
Visualization observer readout
Local Sidereal Time
13:42:36
Azimuth
Unknown
Elevation
Unknown
Doppler factor
Unknown
Orbital elements
Apogee altitude
848.649 km
Perigee altitude
613.029 km
Semi-major axis
7,108.976 km
Eccentricity
0.01657
Inclination
98.1862°
RAAN
242.3555°
Arg. of periapsis
66.0611°
True anomaly
294.05867°
Mean anomaly
295.7839°
Eccentric anomaly
294.92282°
Mean motion
3.62103 °/min
Orbital period
99.42 mins
BSTAR
0.00030149
Loading maneuver chart data...
Computing Atmospheric mass density...
Loading historical data...
Loading historical data...
Loading historical data...
Loading historical data...
Loading historical data...
Loading historical data...
Loading historical data...

Documentation

Showing up to 5 results
|